W1JCN Weather Reports


Display with metric or nautical units.
time (UTC)temp
F
wind
direction
speed
MPH
gust
MPH
rain 1hr
in
rain 24hr
in
rain mn
in
humidity
%
barometer
mb
20260905002020 62 0 0.0 0.0 0.00 0.00 0.00 87 1009.4
20260905001120 63 0 0.0 0.0 0.00 0.00 0.00 87 1009.3
20260905000220 63 0 0.0 0.0 0.00 0.00 0.00 86 1009.2
20260904234420 64 0 0.0 0.0 0.00 0.00 0.00 84 1009.1
20260904233520 64 0 0.0 0.0 0.00 0.00 0.00 83 1009.1
20260904232620 65 0 0.0 0.0 0.00 0.00 0.00 84 1009.0
20260904231720 66 0 0.0 0.0 0.00 0.00 0.00 83 1009.0
20260904230820 66 0 0.0 0.0 0.00 0.00 0.00 82 1008.9
20260904225920 67 0 0.0 0.0 0.00 0.00 0.00 81 1008.9
20260904225020 68 0 0.0 0.0 0.00 0.00 0.00 80 1009.0
20260904223220 69 0 0.0 0.0 0.00 0.00 0.00 78 1008.8
20260904222320 69 0 0.0 0.0 0.00 0.00 0.00 77 1008.8
20260904221420 69 0 0.0 0.0 0.00 0.00 0.00 74 1008.7
20260904220520 70 0 0.0 0.0 0.00 0.00 0.00 72 1008.9
20260904215620 70 329 0.0 4.0 0.00 0.00 0.00 71 1008.9
20260904214720 71 341 0.0 2.0 0.00 0.00 0.00 70 1008.9
20260904213820 71 323 1.0 5.0 0.00 0.00 0.00 66 1008.8
20260904212020 72 316 1.0 6.0 0.00 0.00 0.00 68 1008.8
20260904211120 72 275 0.0 3.0 0.00 0.00 0.00 68 1008.9
20260904210220 72 310 0.0 8.0 0.00 0.00 0.00 65 1008.7
20260904205320 72 14 0.0 4.0 0.00 0.00 0.00 67 1008.8
20260904204420 73 323 1.0 5.0 0.00 0.00 0.00 67 1008.7
20260904203520 73 310 0.0 4.0 0.00 0.00 0.00 66 1008.7
20260904202620 73 345 0.0 5.0 0.00 0.00 0.00 64 1008.8
20260904201720 74 322 1.0 8.0 0.00 0.00 0.00 63 1008.9
20260904200820 74 298 1.0 8.0 0.00 0.00 0.00 64 1008.8
20260904195920 74 316 1.0 9.0 0.00 0.00 0.00 66 1008.8
20260904195020 74 343 1.0 9.0 0.00 0.00 0.00 67 1008.8
20260904193220 74 295 1.0 10.0 0.00 0.00 0.00 68 1008.7
20260904192319 74 335 1.0 11.0 0.00 0.00 0.00 63 1008.8
20260904191419 73 334 0.0 6.0 0.00 0.00 0.00 62 1008.9
20260904185619 73 323 1.0 6.0 0.00 0.00 0.00 65 1009.0
20260904184719 73 321 1.0 6.0 0.00 0.00 0.00 66 1009.0
20260904183819 73 330 1.0 5.0 0.00 0.00 0.00 62 1008.9
20260904182019 74 320 1.0 9.0 0.00 0.00 0.00 67 1009.1
20260904181119 75 324 1.0 8.0 0.00 0.00 0.00 64 1009.3
20260904175319 74 314 1.0 8.0 0.00 0.00 0.00 67 1009.0
20260904173519 73 309 1.0 5.0 0.00 0.00 0.00 71 1008.8
20260904172619 72 301 1.0 5.0 0.00 0.00 0.00 76 1009.0
20260904171719 72 320 1.0 5.0 0.00 0.00 0.00 72 1009.1
20260904170819 73 329 0.0 5.0 0.00 0.00 0.00 71 1009.2
20260904165919 73 324 1.0 5.0 0.00 0.00 0.00 69 1009.1
20260904165019 73 331 0.0 3.0 0.00 0.00 0.00 71 1009.2
20260904164119 74 281 1.0 4.0 0.00 0.00 0.00 68 1009.3
20260904163219 75 302 1.0 5.0 0.00 0.00 0.00 71 1009.4
20260904161419 75 248 1.0 4.0 0.00 0.00 0.00 74 1009.5
20260904160519 74 251 1.0 4.0 0.00 0.00 0.00 73 1009.5
20260904155619 74 334 1.0 8.0 0.00 0.00 0.00 71 1009.5
20260904154719 73 322 1.0 6.0 0.00 0.00 0.00 72 1009.5
20260904153819 74 333 2.0 12.0 0.00 0.00 0.00 68 1009.6
20260904152919 74 320 1.0 8.0 0.00 0.00 0.00 69 1009.7
20260904152019 73 341 1.0 7.0 0.00 0.00 0.00 73 1009.8
20260904151119 73 284 0.0 3.0 0.00 0.00 0.00 76 1009.9
20260904150219 72 326 1.0 6.0 0.00 0.00 0.00 78 1009.9
20260904145319 71 295 1.0 11.0 0.00 0.00 0.00 77 1009.9
20260904144419 70 318 1.0 4.0 0.00 0.00 0.00 83 1009.9
20260904143519 68 321 1.0 9.0 0.00 0.00 0.00 83 1009.9
20260904142619 67 336 0.0 8.0 0.00 0.00 0.00 88 1010.0
20260904140819 65 334 0.0 5.0 0.00 0.00 0.00 92 1010.1
20260904135919 64 329 1.0 5.0 0.00 0.00 0.00 92 1010.0
20260904135019 63 330 1.0 6.0 0.00 0.00 0.00 93 1010.0
20260904134119 63 329 1.0 6.0 0.00 0.00 0.00 94 1010.0
20260904133219 62 333 1.0 5.0 0.00 0.00 0.00 94 1009.9
20260904132319 62 334 0.0 9.0 0.00 0.00 0.00 95 1010.0
20260904131419 62 331 1.0 6.0 0.00 0.00 0.00 94 1009.9
20260904130519 62 326 0.0 4.0 0.00 0.00 0.00 95 1010.0
20260904125619 62 323 0.0 4.0 0.00 0.00 0.00 95 1010.0
20260904124719 61 322 0.0 1.0 0.00 0.00 0.00 95 1010.0
20260904123819 61 318 0.0 4.0 0.00 0.00 0.00 95 1010.0
20260904122919 61 280 0.0 4.0 0.00 0.00 0.00 95 1009.9
20260904122019 61 0 0.0 0.0 0.00 0.00 0.00 95 1009.9
20260904120220 60 159 0.0 1.0 0.00 0.00 0.00 95 1009.7
20260904115318 60 0 0.0 0.0 0.00 0.00 0.00 95 1009.7
20260904113519 59 159 0.0 2.0 0.00 0.00 0.00 95 1009.6
20260904112619 59 159 0.0 2.0 0.00 0.00 0.00 95 1009.5
20260904110819 58 0 0.0 0.0 0.00 0.00 0.00 95 1009.4
20260904105919 58 0 0.0 0.0 0.00 0.00 0.00 95 1009.4
20260904105018 57 159 0.0 1.0 0.00 0.00 0.00 94 1009.3
20260904104118 57 159 0.0 1.0 0.00 0.00 0.00 94 1009.3
20260904101418 57 0 0.0 0.0 0.00 0.00 0.00 94 1009.1
20260904100518 56 0 0.0 0.0 0.00 0.00 0.00 94 1009.1
20260904094718 56 0 0.0 0.0 0.00 0.00 0.00 94 1008.9
20260904093818 56 0 0.0 0.0 0.00 0.00 0.00 94 1009.0
20260904092918 56 0 0.0 0.0 0.00 0.00 0.00 94 1009.0
20260904092018 56 0 0.0 0.0 0.00 0.00 0.00 94 1009.1
20260904091118 56 0 0.0 0.0 0.00 0.00 0.00 94 1009.2
20260904085318 56 0 0.0 0.0 0.00 0.00 0.00 94 1009.0
20260904083518 56 0 0.0 0.0 0.00 0.00 0.00 94 1009.1
20260904081718 57 0 0.0 0.0 0.00 0.00 0.00 94 1009.1
20260904080818 57 0 0.0 0.0 0.00 0.00 0.00 94 1009.1
20260904075918 57 0 0.0 0.0 0.00 0.00 0.00 94 1009.1
20260904075018 57 0 0.0 0.0 0.00 0.00 0.00 94 1009.2
20260904074118 57 0 0.0 0.0 0.00 0.00 0.00 94 1009.2
20260904073218 58 0 0.0 0.0 0.00 0.00 0.00 94 1009.3
20260904072318 58 0 0.0 0.0 0.00 0.00 0.00 94 1009.2
20260904071418 58 0 0.0 0.0 0.00 0.00 0.00 94 1009.2
20260904065618 58 0 0.0 0.0 0.00 0.00 0.00 94 1009.2
20260904064718 58 0 0.0 0.0 0.00 0.00 0.00 94 1009.4
20260904063818 58 0 0.0 0.0 0.00 0.00 0.00 94 1009.5
20260904062918 58 0 0.0 0.0 0.00 0.00 0.00 94 1009.5
20260904062018 58 0 0.0 0.0 0.00 0.00 0.00 93 1009.6
20260904061118 59 0 0.0 0.0 0.00 0.00 0.00 94 1009.7
20260904060218 59 0 0.0 0.0 0.00 0.00 0.00 93 1009.8
20260904054418 59 0 0.0 0.0 0.00 0.02 0.00 94 1010.0
20260904053518 60 0 0.0 0.0 0.00 0.02 0.00 93 1010.2
20260904052618 60 0 0.0 0.0 0.00 0.02 0.00 93 1010.3
20260904051718 60 0 0.0 0.0 0.00 0.02 0.00 94 1010.3
20260904050818 60 0 0.0 0.0 0.00 0.02 0.00 93 1010.4
20260904045918 60 0 0.0 0.0 0.00 0.02 0.00 93 1010.5
20260904045018 60 0 0.0 0.0 0.00 0.02 0.00 93 1010.5
20260904044118 61 0 0.0 0.0 0.00 0.02 0.00 93 1010.5
20260904042318 61 0 0.0 0.0 0.00 0.02 0.00 93 1010.4
20260904040518 62 0 0.0 0.0 0.00 0.02 0.00 93 1010.5
20260904035618 62 0 0.0 0.0 0.00 0.02 0.02 93 1010.7
20260904033818 63 0 0.0 0.0 0.00 0.02 0.02 93 1010.8
20260904032918 63 0 0.0 0.0 0.00 0.02 0.02 93 1010.8
20260904032017 63 0 0.0 0.0 0.00 0.02 0.02 93 1010.9
20260904025318 64 0 0.0 0.0 0.00 0.02 0.02 93 1011.0
20260904024418 64 0 0.0 0.0 0.00 0.02 0.02 93 1011.1
20260904023518 64 0 0.0 0.0 0.00 0.02 0.02 93 1011.1
20260904022617 65 0 0.0 0.0 0.00 0.02 0.02 93 1010.9
20260904020817 65 0 0.0 0.0 0.00 0.02 0.02 93 1011.0
20260904015918 65 0 0.0 0.0 0.00 0.02 0.02 93 1011.1
20260904015017 65 0 0.0 0.0 0.00 0.02 0.02 93 1011.0
20260904014117 65 0 0.0 0.0 0.00 0.02 0.02 93 1011.1
20260904013218 66 0 0.0 0.0 0.00 0.02 0.02 93 1011.2
20260904012317 66 0 0.0 0.0 0.00 0.02 0.02 93 1011.2
20260904005617 66 0 0.0 0.0 0.00 0.02 0.02 93 1011.1
20260904004717 66 0 0.0 0.0 0.00 0.02 0.02 92 1011.0
20260904003817 66 0 0.0 0.0 0.00 0.02 0.02 92 1011.0
20260904002917 67 0 0.0 0.0 0.00 0.02 0.02 92 1010.7